Time,TemperatureF,DewpointF,PressureIn,WindDirection,WindDirectionDegrees,WindSpeedMPH,WindSpeedGustMPH,Humidity,HourlyPrecipIn,Conditions,Clouds,dailyrainin,SoftwareType,DateUTC
2013-04-28 00:00:00,74.6,64.0,30.14,East,86,2.0,6.0,69,0.00,,,0.00,weatherlink.com 1.10,2013-04-28 04:00:00,
2013-04-28 00:15:00,74.5,64.0,30.13,East,91,4.0,6.0,69,0.00,,,0.00,weatherlink.com 1.10,2013-04-28 04:15:00,
2013-04-28 00:30:00,74.4,64.0,30.13,ESE,113,2.0,8.0,70,0.00,,,0.00,weatherlink.com 1.10,2013-04-28 04:30:00,
2013-04-28 00:45:00,74.2,64.0,30.13,East,101,1.0,6.0,71,0.00,,,0.00,weatherlink.com 1.10,2013-04-28 04:45:00,
2013-04-28 01:00:00,74.3,64.0,30.13,East,92,2.0,6.0,71,0.00,,,0.00,weatherlink.com 1.10,2013-04-28 05:00:00,
2013-04-28 01:15:00,74.2,63.0,30.12,NE,50,6.0,7.0,69,0.00,,,0.00,weatherlink.com 1.10,2013-04-28 05:15:00,
2013-04-28 01:30:00,74.3,65.0,30.12,East,84,1.0,5.0,72,0.00,,,0.00,weatherlink.com 1.10,2013-04-28 05:30:00,
2013-04-28 02:00:00,74.2,64.0,30.11,ENE,63,1.0,5.0,71,0.00,,,0.00,weatherlink.com 1.10,2013-04-28 06:00:00,
2013-04-28 02:15:00,74.3,64.0,30.11,NE,56,1.0,6.0,70,0.00,,,0.00,weatherlink.com 1.10,2013-04-28 06:15:00,
2013-04-28 02:30:00,74.1,64.0,30.10,NE,56,0.0,5.0,70,0.00,,,0.00,weatherlink.com 1.10,2013-04-28 06:30:00,
2013-04-28 02:45:00,74.1,64.0,30.10,NE,51,1.0,6.0,71,0.00,,,0.00,weatherlink.com 1.10,2013-04-28 06:45:00,
2013-04-28 03:00:00,74.0,64.0,30.09,ENE,63,3.0,7.0,71,0.00,,,0.00,weatherlink.com 1.10,2013-04-28 07:00:00,
2013-04-28 03:15:00,74.0,64.0,30.09,ENE,63,1.0,6.0,71,0.00,,,0.00,weatherlink.com 1.10,2013-04-28 07:15:00,
2013-04-28 03:30:00,73.9,63.0,30.09,NE,51,1.0,5.0,69,0.00,,,0.00,weatherlink.com 1.10,2013-04-28 07:30:00,
2013-04-28 03:45:00,73.8,63.0,30.08,ENE,70,1.0,6.0,70,0.00,,,0.00,weatherlink.com 1.10,2013-04-28 07:45:00,
2013-04-28 04:00:00,73.7,63.0,30.08,East,87,2.0,10.0,70,0.00,,,0.00,weatherlink.com 1.10,2013-04-28 08:00:00,
2013-04-28 04:15:00,73.6,63.0,30.07,ESE,102,1.0,6.0,70,0.00,,,0.00,weatherlink.com 1.10,2013-04-28 08:15:00,
2013-04-28 04:30:00,73.7,64.0,30.08,ENE,70,3.0,7.0,72,0.00,,,0.00,weatherlink.com 1.10,2013-04-28 08:30:00,
2013-04-28 04:45:00,73.7,63.0,30.07,East,81,3.0,7.0,70,0.00,,,0.00,weatherlink.com 1.10,2013-04-28 08:45:00,
2013-04-28 05:00:00,73.6,63.0,30.07,East,83,3.0,6.0,69,0.00,,,0.00,weatherlink.com 1.10,2013-04-28 09:00:00,
2013-04-28 05:15:00,73.6,63.0,30.07,NE,45,1.0,7.0,69,0.00,,,0.00,weatherlink.com 1.10,2013-04-28 09:15:00,
2013-04-28 05:30:00,73.7,64.0,30.07,ENE,75,2.0,8.0,71,0.00,,,0.00,weatherlink.com 1.10,2013-04-28 09:30:00,
2013-04-28 05:45:00,73.6,62.0,30.07,East,98,2.0,8.0,68,0.00,,,0.00,weatherlink.com 1.10,2013-04-28 09:45:00,
2013-04-28 06:00:00,73.5,62.0,30.07,NE,51,3.0,7.0,68,0.00,,,0.00,weatherlink.com 1.10,2013-04-28 10:00:00,
2013-04-28 06:15:00,73.6,63.0,30.07,East,80,3.0,6.0,69,0.00,,,0.00,weatherlink.com 1.10,2013-04-28 10:15:00,
2013-04-28 06:30:00,73.5,62.0,30.07,NE,49,3.0,6.0,68,0.00,,,0.00,weatherlink.com 1.10,2013-04-28 10:30:00,
2013-04-28 06:45:00,73.7,63.0,30.08,ENE,75,7.0,7.0,70,0.00,,,0.00,weatherlink.com 1.10,2013-04-28 10:45:00,
2013-04-28 07:00:00,73.9,64.0,30.08,East,85,5.0,8.0,71,0.00,,,0.00,weatherlink.com 1.10,2013-04-28 11:00:00,
2013-04-28 07:15:00,74.1,64.0,30.08,ESE,108,5.0,8.0,70,0.00,,,0.00,weatherlink.com 1.10,2013-04-28 11:15:00,
2013-04-28 07:31:00,74.1,63.0,30.08,ESE,110,1.0,7.0,68,0.00,,,0.00,weatherlink.com 1.10,2013-04-28 11:31:00,
2013-04-28 07:46:00,74.3,63.0,30.08,NE,49,1.0,8.0,67,0.00,,,0.00,weatherlink.com 1.10,2013-04-28 11:46:00,
2013-04-28 08:01:00,74.9,64.0,30.08,NE,46,3.0,6.0,69,0.00,,,0.00,weatherlink.com 1.10,2013-04-28 12:01:00,
2013-04-28 08:16:00,75.1,65.0,30.10,NE,40,3.0,7.0,70,0.00,,,0.00,weatherlink.com 1.10,2013-04-28 12:16:00,
2013-04-28 08:31:00,75.6,65.0,30.10,NE,44,1.0,7.0,69,0.00,,,0.00,weatherlink.com 1.10,2013-04-28 12:31:00,
2013-04-28 08:46:00,76.6,64.0,30.10,East,80,2.0,7.0,66,0.00,,,0.00,weatherlink.com 1.10,2013-04-28 12:46:00,
2013-04-28 09:01:00,77.2,64.0,30.10,East,89,2.0,8.0,63,0.00,,,0.00,weatherlink.com 1.10,2013-04-28 13:01:00,
2013-04-28 09:16:00,77.6,66.0,30.11,NNE,30,1.0,8.0,67,0.00,,,0.00,weatherlink.com 1.10,2013-04-28 13:16:00,
2013-04-28 09:31:00,76.5,65.0,30.11,NE,53,4.0,7.0,68,0.00,,,0.00,weatherlink.com 1.10,2013-04-28 13:31:00,
2013-04-28 09:46:00,77.0,65.0,30.11,ENE,63,4.0,7.0,66,0.00,,,0.00,weatherlink.com 1.10,2013-04-28 13:46:00,
2013-04-28 10:01:00,77.5,65.0,30.12,NNE,13,3.0,8.0,65,0.00,,,0.00,weatherlink.com 1.10,2013-04-28 14:01:00,
2013-04-28 10:16:00,78.9,65.0,30.11,NE,49,4.0,8.0,63,0.00,,,0.00,weatherlink.com 1.10,2013-04-28 14:16:00,
2013-04-28 10:31:00,79.3,65.0,30.12,NNE,27,1.0,6.0,62,0.00,,,0.00,weatherlink.com 1.10,2013-04-28 14:31:00,
2013-04-28 10:46:00,79.2,65.0,30.12,East,85,4.0,9.0,62,0.00,,,0.00,weatherlink.com 1.10,2013-04-28 14:46:00,
2013-04-28 11:01:00,79.9,65.0,30.13,NE,56,1.0,8.0,60,0.00,,,0.00,weatherlink.com 1.10,2013-04-28 15:01:00,
2013-04-28 11:16:00,80.5,64.0,30.13,NNE,27,2.0,7.0,58,0.00,,,0.00,weatherlink.com 1.10,2013-04-28 15:16:00,
2013-04-28 11:31:00,80.8,63.0,30.13,NE,52,3.0,7.0,55,0.00,,,0.00,weatherlink.com 1.10,2013-04-28 15:31:00,
2013-04-28 11:46:00,81.3,65.0,30.12,NE,36,2.0,6.0,57,0.00,,,0.00,weatherlink.com 1.10,2013-04-28 15:46:00,
2013-04-28 12:01:00,81.8,65.0,30.12,NE,51,1.0,9.0,57,0.00,,,0.00,weatherlink.com 1.10,2013-04-28 16:01:00,
2013-04-28 12:16:00,81.7,64.0,30.12,SE,129,6.0,6.0,56,0.00,,,0.00,weatherlink.com 1.10,2013-04-28 16:16:00,
2013-04-28 12:31:00,81.6,64.0,30.12,NNE,27,1.0,7.0,56,0.00,,,0.00,weatherlink.com 1.10,2013-04-28 16:31:00,
2013-04-28 12:46:00,82.1,64.0,30.12,NE,40,1.0,6.0,55,0.00,,,0.00,weatherlink.com 1.10,2013-04-28 16:46:00,
2013-04-28 13:01:00,82.7,64.0,30.12,NNE,16,1.0,7.0,54,0.00,,,0.00,weatherlink.com 1.10,2013-04-28 17:01:00,
2013-04-28 13:16:00,82.2,65.0,30.12,ENE,72,4.0,8.0,56,0.00,,,0.00,weatherlink.com 1.10,2013-04-28 17:16:00,
2013-04-28 13:31:00,82.2,64.0,30.11,ENE,70,4.0,8.0,54,0.00,,,0.00,weatherlink.com 1.10,2013-04-28 17:31:00,
2013-04-28 13:46:00,82.1,65.0,30.11,NNE,29,4.0,10.0,56,0.00,,,0.00,weatherlink.com 1.10,2013-04-28 17:46:00,
2013-04-28 14:01:00,82.6,66.0,30.10,ENE,63,2.0,8.0,57,0.00,,,0.00,weatherlink.com 1.10,2013-04-28 18:01:00,
2013-04-28 14:16:00,82.7,65.0,30.10,NE,54,4.0,9.0,56,0.00,,,0.00,weatherlink.com 1.10,2013-04-28 18:16:00,
2013-04-28 14:31:00,83.3,65.0,30.09,SE,146,2.0,7.0,55,0.00,,,0.00,weatherlink.com 1.10,2013-04-28 18:31:00,
2013-04-28 14:46:00,82.7,65.0,30.08,ENE,68,6.0,8.0,55,0.00,,,0.00,weatherlink.com 1.10,2013-04-28 18:46:00,
2013-04-28 15:01:00,82.6,65.0,30.08,ESE,104,6.0,10.0,55,0.00,,,0.00,weatherlink.com 1.10,2013-04-28 19:01:00,
2013-04-28 15:16:00,82.8,65.0,30.07,NE,52,3.0,8.0,56,0.00,,,0.00,weatherlink.com 1.10,2013-04-28 19:16:00,
2013-04-28 15:31:00,82.6,65.0,30.07,NE,49,3.0,8.0,56,0.00,,,0.00,weatherlink.com 1.10,2013-04-28 19:31:00,
2013-04-28 15:46:00,82.5,65.0,30.06,NE,41,4.0,8.0,55,0.00,,,0.00,weatherlink.com 1.10,2013-04-28 19:46:00,
2013-04-28 16:01:00,82.1,65.0,30.05,NNE,20,2.0,7.0,56,0.00,,,0.00,weatherlink.com 1.10,2013-04-28 20:01:00,
2013-04-28 16:16:00,82.0,65.0,30.05,North,349,4.0,7.0,56,0.00,,,0.00,weatherlink.com 1.10,2013-04-28 20:16:00,
2013-04-28 16:31:00,81.9,66.0,30.04,ESE,102,1.0,7.0,58,0.00,,,0.00,weatherlink.com 1.10,2013-04-28 20:31:00,
2013-04-28 16:46:00,81.0,65.0,30.03,ENE,60,6.0,7.0,59,0.00,,,0.00,weatherlink.com 1.10,2013-04-28 20:46:00,
2013-04-28 17:01:00,81.0,65.0,30.03,NE,54,2.0,6.0,59,0.00,,,0.00,weatherlink.com 1.10,2013-04-28 21:01:00,
2013-04-28 17:16:00,80.9,66.0,30.03,NE,56,3.0,6.0,60,0.00,,,0.00,weatherlink.com 1.10,2013-04-28 21:16:00,
2013-04-28 17:32:00,80.2,66.0,30.03,East,82,4.0,7.0,62,0.00,,,0.00,weatherlink.com 1.10,2013-04-28 21:32:00,
2013-04-28 17:47:00,79.7,66.0,30.02,East,81,1.0,8.0,64,0.00,,,0.00,weatherlink.com 1.10,2013-04-28 21:47:00,
2013-04-28 18:02:00,79.3,67.0,30.02,SE,138,0.0,8.0,65,0.00,,,0.00,weatherlink.com 1.10,2013-04-28 22:02:00,
2013-04-28 18:17:00,79.4,67.0,30.02,NE,34,3.0,7.0,65,0.00,,,0.00,weatherlink.com 1.10,2013-04-28 22:17:00,
2013-04-28 18:32:00,78.3,66.0,30.01,NNE,25,2.0,4.0,65,0.00,,,0.00,weatherlink.com 1.10,2013-04-28 22:32:00,
2013-04-28 18:47:00,78.3,66.0,30.02,NE,37,4.0,5.0,67,0.00,,,0.00,weatherlink.com 1.10,2013-04-28 22:47:00,
2013-04-28 19:02:00,77.9,66.0,30.02,NE,44,2.0,6.0,66,0.00,,,0.00,weatherlink.com 1.10,2013-04-28 23:02:00,
2013-04-28 19:17:00,77.0,64.0,30.02,NE,56,1.0,5.0,65,0.00,,,0.00,weatherlink.com 1.10,2013-04-28 23:17:00,
2013-04-28 19:32:00,76.5,64.0,30.01,ENE,74,1.0,4.0,65,0.00,,,0.00,weatherlink.com 1.10,2013-04-28 23:32:00,
2013-04-28 19:47:00,76.4,65.0,30.02,NNE,23,5.0,5.0,67,0.00,,,0.00,weatherlink.com 1.10,2013-04-28 23:47:00,
2013-04-28 20:02:00,76.0,64.0,30.02,ENE,68,1.0,2.0,67,0.00,,,0.00,weatherlink.com 1.10,2013-04-29 00:02:00,
2013-04-28 20:17:00,75.8,65.0,30.02,NE,40,2.0,2.0,69,0.00,,,0.00,weatherlink.com 1.10,2013-04-29 00:17:00,
2013-04-28 20:32:00,76.1,66.0,30.02,ENE,63,1.0,4.0,70,0.00,,,0.00,weatherlink.com 1.10,2013-04-29 00:32:00,
2013-04-28 20:47:00,76.0,66.0,30.02,ESE,106,0.0,5.0,70,0.00,,,0.00,weatherlink.com 1.10,2013-04-29 00:47:00,
2013-04-28 21:02:00,76.0,66.0,30.02,NE,44,0.0,5.0,70,0.00,,,0.00,weatherlink.com 1.10,2013-04-29 01:02:00,
2013-04-28 21:17:00,75.9,65.0,30.03,NE,51,2.0,5.0,70,0.00,,,0.00,weatherlink.com 1.10,2013-04-29 01:17:00,
2013-04-28 21:32:00,75.7,65.0,30.03,NE,36,3.0,5.0,70,0.00,,,0.00,weatherlink.com 1.10,2013-04-29 01:32:00,
2013-04-28 21:47:00,75.8,65.0,30.03,NNE,26,3.0,5.0,70,0.00,,,0.00,weatherlink.com 1.10,2013-04-29 01:47:00,
2013-04-28 22:02:00,75.7,65.0,30.03,NE,34,1.0,6.0,69,0.00,,,0.00,weatherlink.com 1.10,2013-04-29 02:02:00,
2013-04-28 22:17:00,75.7,65.0,30.03,NE,56,1.0,6.0,70,0.00,,,0.00,weatherlink.com 1.10,2013-04-29 02:17:00,
2013-04-28 22:32:00,75.5,65.0,30.04,SSW,200,1.0,4.0,70,0.00,,,0.00,weatherlink.com 1.10,2013-04-29 02:32:00,
2013-04-28 22:47:00,75.6,65.0,30.04,NE,42,4.0,7.0,69,0.00,,,0.00,weatherlink.com 1.10,2013-04-29 02:47:00,
2013-04-28 23:02:00,76.0,65.0,30.03,NE,47,0.0,6.0,69,0.00,,,0.00,weatherlink.com 1.10,2013-04-29 03:02:00,
2013-04-28 23:17:00,75.8,65.0,30.03,East,79,2.0,7.0,70,0.00,,,0.00,weatherlink.com 1.10,2013-04-29 03:17:00,
2013-04-28 23:32:00,75.7,66.0,30.04,NNE,24,4.0,7.0,71,0.00,,,0.00,weatherlink.com 1.10,2013-04-29 03:32:00,
2013-04-28 23:47:00,75.6,66.0,30.04,NNE,30,3.0,8.0,71,0.00,,,0.00,weatherlink.com 1.10,2013-04-29 03:47:00,